[[{"header":{"parameterUnit":"m.s-1","parameterCategory":1,"la1":30.2991,"la2":30.254,"lo1":-89.0895,"lo2":-89.0444,"dy":0.0017,"dx":0.0017,"nx":28,"ny":28,"refTime":"2023-08-14T03:00:00:Z","depth":0,"parameterNumber":2,"parameterNumberName":"U-component_of_WINDS"},"data":[0,0,0,0,0,0,0,0,0,0,0,0,0,0,0,0,0,0,0,0,0,0,0,0,0,0,0,0,0,0,0,0,0,0,0,0,0,0,0,0,0,0,0,0,0,0,0,0,0,0,0,0,0,0,0,0,0,0,3.1489,3.1489,0,3.1519,3.1519,3.152,3.1461,3.1459,3.1457,3.1455,3.1488,3.1491,3.1494,0,0,0,0,0,0,0,0,0,0,0,0,0,3.138,3.1382,3.1489,3.1489,3.149,3.1519,3.152,3.152,3.1461,3.1459,3.1456,3.1454,3.1487,3.1491,3.1494,0,0,0,0,0,0,0,0,0,0,0,0,0,3.1421,3.1383,3.1489,3.1464,3.1462,3.1519,3.152,3.152,3.1461,3.1458,3.1456,3.1453,3.1486,3.149,3.1494,3.1578,0,0,3.1507,3.1509,0,0,0,0,0,0,0,0,3.1418,3.1425,3.1467,3.1466,3.1463,3.1483,3.1493,3.154,3.1462,3.1462,3.1455,3.1451,3.1489,3.1493,3.1505,3.158,3.1581,3.1507,3.151,3.1511,3.1512,0,0,0,0,0,0,0,3.1416,3.1423,3.1501,3.1468,3.1466,3.1451,3.1453,3.1502,3.1492,3.1461,3.1457,3.1461,3.1488,3.1501,3.1505,3.1582,3.1507,3.1511,3.1513,3.1515,3.1723,3.1726,0,0,0,0,0,0,3.1416,3.1421,3.15,3.1502,3.1433,3.1455,3.1458,3.148,3.1491,3.149,3.1464,3.1459,3.1496,3.1501,3.1506,3.1602,3.1511,3.1515,3.1517,3.172,3.1723,3.1727,0,0,0,0,0,0,3.1414,3.1423,3.1499,3.146,3.1469,3.146,3.1485,3.1482,3.1495,3.1493,3.1491,3.148,3.1494,3.1501,3.156,3.1602,3.1517,3.1521,3.1716,3.1721,3.1725,3.1797,0,0,0,0,0,0,3.1411,3.1423,3.1455,3.1461,3.1471,3.1552,3.1488,3.1485,3.1502,3.1496,3.1507,3.1506,3.1492,3.1554,3.1564,3.1607,3.1524,3.1712,3.1718,3.1724,3.179,3.1803,3.1814,0,0,0,0,0,3.1407,3.1476,3.1457,3.1467,3.1511,3.1555,3.156,3.1542,3.1506,3.1538,3.1535,3.1506,3.1597,3.156,3.1571,3.1616,3.1709,3.1716,3.1723,3.1785,3.1801,3.1814,0,0,0,0,0,0,3.1476,3.1476,3.1456,3.1528,3.1541,3.1544,3.1584,3.1559,3.1584,3.1577,3.1553,3.1556,3.162,3.1624,3.1584,3.1695,3.1647,3.1656,3.169,3.1705,3.1717,3.1714,3.1527,0,0,0,0,0,3.15,3.1535,3.1533,3.1597,3.1605,3.1593,3.1612,3.1596,3.1609,3.1615,3.1617,3.1632,3.1663,3.1685,3.1714,3.1791,3.1791,3.1827,3.1838,3.1848,3.1856,3.1894,3.1909,3.1749,3.1749,3.1749,0,0,3.1549,3.1553,3.1577,3.1611,3.162,3.1656,3.1599,3.1641,3.1667,3.1622,3.1676,3.1679,3.1693,3.1761,3.1791,3.1766,3.19,3.1857,3.1865,3.1867,3.1902,3.1917,3.1931,3.1754,3.1753,3.1753,0,0,3.1657,3.1665,3.1717,3.1726,3.1739,3.173,3.1743,3.1749,3.1748,3.1802,3.1768,3.1799,3.1855,3.1865,3.1878,3.1986,3.1958,3.1996,3.2058,3.2094,3.2107,3.2118,3.2154,3.2167,3.2004,3.2005,3.2005,0,3.1717,3.177,3.1747,3.179,3.1805,3.1764,3.1815,3.1826,3.1848,3.1859,3.1831,3.1897,3.1905,3.1972,3.1998,3.2011,3.2023,3.1994,3.2107,3.2118,3.2128,3.2161,3.2175,3.2009,3.2008,3.2008,3.2008,0,3.1841,3.1878,3.1919,3.1938,3.1958,3.2006,3.1989,3.2012,3.1994,3.1988,3.2042,3.2049,3.2077,3.2092,3.2077,3.2157,3.2141,3.2111,3.2061,3.2147,3.2178,3.2191,3.2015,3.2014,3.2012,3.2011,0,0,3.1994,3.1999,3.2014,3.202,3.203,3.2058,3.2103,3.2129,3.2147,3.2164,3.2199,3.2245,3.2216,3.223,3.2215,3.2248,3.2329,3.2213,3.2213,3.2232,3.2414,3.2435,3.2451,3.2311,3.2313,3.2315,3.2412,0,3.2099,3.2174,3.2153,3.2228,3.226,3.2221,3.2259,3.2269,3.2264,3.229,3.2286,3.2317,3.2278,3.2286,3.2316,3.2312,3.2365,3.2306,3.2342,3.2344,3.2338,3.2468,3.2491,3.2582,3.2425,3.2427,3.2428,0,3.2231,3.2249,3.2326,3.2327,3.234,3.2375,3.2394,3.2421,3.243,3.2424,3.2439,3.2416,3.2459,3.2409,3.2467,3.2427,3.2441,3.2441,3.2444,3.2445,3.239,3.247,3.2611,3.2624,3.2448,3.2446,3.2445,0,3.2331,3.2376,3.2426,3.2434,3.2437,3.2462,3.2464,3.2471,3.2486,3.2504,3.2513,3.2537,3.2549,3.2568,3.2551,3.2517,3.261,3.2561,3.2605,3.2606,3.2626,3.2624,3.2768,3.2638,3.2638,3.2638,3.2638,0,3.2448,3.2497,3.2471,3.2502,3.2554,3.253,3.2582,3.258,3.2586,3.2615,3.2584,3.2612,3.2589,3.2616,3.2603,3.2651,3.2658,3.2653,3.2649,3.2655,3.2655,3.2662,3.2655,3.2642,3.2641,3.264,3.2639,0,3.2569,3.2554,3.2606,3.2603,3.2604,3.2642,3.2639,3.2668,3.266,3.2697,3.2705,3.2692,3.2721,3.2707,3.2738,3.2729,3.279,3.2778,3.2786,3.2782,3.2827,3.2822,3.2979,3.2997,3.2858,3.2859,3.286,0,3.2644,3.2679,3.2679,3.2696,3.27,3.2728,3.2742,3.2719,3.2736,3.2747,3.2774,3.28,3.2819,3.2867,3.2861,3.2883,3.2871,3.2924,3.2874,3.2878,3.2868,3.2865,3.2868,3.2934,3.2936,3.2937,3.2938,0,3.2777,3.2767,3.2789,3.2807,3.2825,3.2839,3.285,3.2866,3.2843,3.2863,3.2891,3.2906,3.2935,3.2961,3.298,3.2982,3.2956,3.2954,3.2965,3.297,3.2972,3.2969,3.2811,3.295,3.2949,3.2948,3.2947,3.2947,3.2875,3.2904,3.2907,3.2931,3.2937,3.2947,3.2972,3.2966,3.2988,3.3009,3.2995,3.3027,3.3033,3.3055,3.3061,3.3086,3.3064,3.3081,3.3085,3.3089,3.3094,3.2969,3.309,3.3089,3.3089,3.3089,3.3088,0,3.3005,3.3004,3.3026,3.3041,3.306,3.3032,3.3043,3.306,3.3088,3.3096,3.3114,3.3145,3.3168,3.3163,3.3184,3.3205,3.3193,3.3211,3.3208,3.3208,3.3113,3.31,3.322,3.322,3.322,3.322,3.322,3.322,3.3074,3.3119,3.3109,3.3155,3.3154,3.3184,3.3192,3.3201,3.3206,3.3241,3.3259,3.3255,3.3257,3.3277,3.3297,3.3295,3.3303,3.3325,3.3318,3.3229,3.3216,3.3203,3.3191,3.3327,3.3328,3.3411,3.3412,3.3412]},{"header":{"parameterUnit":"m.s-1","parameterCategory":1,"la1":30.2991,"la2":30.254,"lo1":-89.0895,"lo2":-89.0444,"dy":0.0017,"dx":0.0017,"nx":28,"ny":28,"refTime":"2023-08-14T03:00:00:Z","depth":0,"parameterNumber":3,"parameterNumberName":"V-component_of_WINDS"},"data":[0,0,0,0,0,0,0,0,0,0,0,0,0,0,0,0,0,0,0,0,0,0,0,0,0,0,0,0,0,0,0,0,0,0,0,0,0,0,0,0,0,0,0,0,0,0,0,0,0,0,0,0,0,0,0,0,0,0,6.2715,6.2716,0,6.2831,6.2833,6.2834,6.2803,6.2801,6.2798,6.2796,6.2907,6.2912,6.2917,0,0,0,0,0,0,0,0,0,0,0,0,0,6.2458,6.2463,6.2715,6.2716,6.2718,6.2831,6.2833,6.2834,6.2803,6.2801,6.2798,6.2795,6.2906,6.2912,6.2918,0,0,0,0,0,0,0,0,0,0,0,0,0,6.2571,6.2464,6.2715,6.2716,6.2718,6.2831,6.2833,6.2835,6.2804,6.2801,6.2797,6.2794,6.2904,6.2911,6.2919,6.3035,0,0,6.2942,6.2945,0,0,0,0,0,0,0,0,6.2565,6.258,6.2715,6.2716,6.2718,6.2799,6.2783,6.2902,6.2805,6.2771,6.2796,6.2792,6.2874,6.2884,6.2913,6.304,6.3045,6.2943,6.2947,6.2951,6.2953,0,0,0,0,0,0,0,6.2557,6.2575,6.2761,6.2717,6.2719,6.2709,6.2721,6.2805,6.284,6.2774,6.2772,6.2786,6.2874,6.2905,6.2915,6.3047,6.2943,6.2949,6.2954,6.2957,6.3274,6.3277,0,0,0,0,0,0,6.2549,6.2569,6.2757,6.2764,6.2632,6.2716,6.273,6.2777,6.2839,6.2845,6.2789,6.2785,6.2894,6.2906,6.2919,6.3058,6.2951,6.2958,6.2962,6.327,6.3274,6.3279,0,0,0,0,0,0,6.2543,6.2566,6.2752,6.2666,6.2689,6.2724,6.2777,6.2781,6.2812,6.2851,6.2856,6.2816,6.2892,6.2908,6.3007,6.3062,6.2961,6.2968,6.3265,6.3271,6.3277,6.3338,0,0,0,0,0,0,6.2536,6.2564,6.2611,6.2668,6.2694,6.2841,6.278,6.2786,6.2827,6.2822,6.2877,6.2883,6.289,6.2995,6.3014,6.307,6.2974,6.326,6.3268,6.3275,6.3331,6.3345,6.3357,0,0,0,0,0,6.2527,6.2622,6.2613,6.2636,6.2753,6.2844,6.2859,6.2868,6.2831,6.2877,6.2901,6.2881,6.3053,6.3006,6.3027,6.3086,6.3257,6.3266,6.3274,6.3325,6.3343,6.3357,0,0,0,0,0,0,6.2567,6.2629,6.262,6.2737,6.2786,6.2839,6.2896,6.2886,6.2944,6.2936,6.2943,6.2955,6.3056,6.3081,6.3027,6.3201,6.3149,6.3162,6.3181,6.3198,6.321,6.3201,6.2981,0,0,0,0,0,6.259,6.2662,6.2711,6.2809,6.2834,6.2861,6.2901,6.2904,6.2954,6.2973,6.3005,6.3052,6.3116,6.3158,6.322,6.3335,6.3346,6.3386,6.3399,6.3409,6.342,6.3481,6.3499,6.3307,6.3307,6.3307,0,0,6.2637,6.268,6.2724,6.2818,6.2856,6.2927,6.2879,6.2956,6.3008,6.2984,6.308,6.3105,6.3157,6.3264,6.3313,6.3288,6.3476,6.342,6.3429,6.3434,6.3492,6.351,6.3526,6.3313,6.3312,6.3311,0,0,6.2759,6.28,6.2885,6.2925,6.2985,6.3002,6.3023,6.3078,6.3095,6.3191,6.3175,6.3235,6.3347,6.3385,6.3418,6.3555,6.3538,6.3575,6.3641,6.3701,6.3716,6.373,6.3777,6.3794,6.3586,6.3586,6.3586,0,6.2809,6.2918,6.293,6.3009,6.305,6.3035,6.312,6.3157,6.3233,6.326,6.3232,6.3371,6.3405,6.352,6.3554,6.3583,6.3604,6.3568,6.3714,6.3727,6.374,6.3785,6.3803,6.359,6.3589,6.3589,6.3589,0,6.2976,6.3052,6.3113,6.319,6.3237,6.3319,6.334,6.3387,6.3386,6.3406,6.3503,6.3544,6.3613,6.3641,6.364,6.3756,6.3738,6.3712,6.366,6.3762,6.3804,6.3822,6.3596,6.3594,6.3593,6.3592,0,0,6.3124,6.3208,6.323,6.3264,6.3329,6.3386,6.3466,6.3537,6.3576,6.3628,6.3694,6.3789,6.3765,6.3803,6.3806,6.3859,6.3963,6.3826,6.3827,6.3848,6.4091,6.4109,6.4129,6.3953,6.3956,6.3959,6.4086,0,6.3251,6.3395,6.3408,6.3536,6.3605,6.3592,6.3662,6.3708,6.3729,6.3788,6.3809,6.3876,6.3841,6.3864,6.3916,6.3939,6.4011,6.393,6.4011,6.4013,6.3997,6.4151,6.4171,6.4289,6.4103,6.4106,6.4108,0,6.3417,6.3477,6.3613,6.3669,6.3698,6.3761,6.3826,6.3884,6.3935,6.3946,6.399,6.3986,6.4065,6.4012,6.412,6.4065,6.4098,6.4115,6.412,6.4126,6.4065,6.416,6.4327,6.4344,6.4134,6.4132,6.413,0,6.351,6.3625,6.3721,6.3751,6.3818,6.3862,6.3892,6.394,6.3981,6.4037,6.4063,6.4127,6.4162,6.421,6.4222,6.4183,6.433,6.4278,6.4339,6.4339,6.4369,6.4366,6.4542,6.4394,6.4394,6.4393,6.4393,0,6.3648,6.3731,6.3764,6.3823,6.3915,6.3928,6.4018,6.4044,6.4087,6.4149,6.4141,6.4199,6.4213,6.4272,6.4282,6.4369,6.4385,6.4394,6.4395,6.4394,6.4393,6.4415,6.4406,6.4398,6.4397,6.4396,6.4395,0,6.3766,6.3792,6.3896,6.3952,6.3968,6.4033,6.4079,6.4135,6.4155,6.4233,6.4252,6.4283,6.4353,6.437,6.4453,6.4459,6.4562,6.4556,6.4545,6.4544,6.4604,6.4598,6.4799,6.4825,6.4661,6.4663,6.4664,0,6.3852,6.3916,6.398,6.4022,6.4055,6.4123,6.4166,6.4181,6.4225,6.4288,6.4335,6.4405,6.4461,6.4572,6.46,6.4663,6.4657,6.4724,6.4666,6.4663,6.4656,6.4651,6.4657,6.4733,6.4735,6.4737,6.4738,0,6.4001,6.4011,6.4074,6.4143,6.4195,6.4249,6.43,6.4334,6.4356,6.4406,6.4479,6.4523,6.4608,6.4676,6.474,6.4767,6.4755,6.4756,6.4773,6.4771,6.4762,6.4766,6.4573,6.4751,6.4749,6.4749,6.4748,6.4747,6.4104,6.416,6.4215,6.4285,6.4326,6.4375,6.443,6.4458,6.452,6.4592,6.4597,6.4675,6.4723,6.4808,6.4839,6.4899,6.4878,6.4903,6.4909,6.4915,6.4919,6.4755,6.491,6.491,6.491,6.4909,6.4909,0,6.4251,6.4286,6.4351,6.4425,6.448,6.4469,6.4525,6.4571,6.4641,6.4688,6.4745,6.4827,6.4893,6.4927,6.4992,6.5033,6.503,6.505,6.5046,6.5052,6.4935,6.4913,6.5052,6.5052,6.5052,6.5052,6.5052,6.5052,6.4334,6.4428,6.4444,6.4558,6.4591,6.467,6.4703,6.4747,6.4785,6.4879,6.4935,6.4958,6.4999,6.5067,6.5126,6.5134,6.5158,6.518,6.5185,6.5075,6.506,6.5046,6.5025,6.5186,6.5186,6.5297,6.5298,6.5299]}]]